Weather History for KTUS - November, 2013

Change the Weather History Date:

Wednesday, November 20, 2013

  Actual Average Record
Temperature  
Mean Temperature 64 °F 58 °F  
Max Temperature 76 °F 72 °F 87 °F (1897)
Min Temperature 52 °F 44 °F 26 °F (1921)
Degree Days  
Heating Degree Days 1 7  
Month to date heating degree days 11 92  
Since 1 July heating degree days 24 116  
Cooling Degree Days 0 0  
Month to date cooling degree days 49 25  
Year to date cooling degree days 3653 3144  
Growing Degree Days 14 (Base 50)    
Moisture  
Dew Point 35 °F    
Average Humidity 36    
Maximum Humidity 50    
Minimum Humidity 21    
Precipitation  
Precipitation 0.00 in 0.02 in 0.30 in (1913)
Month to date precipitation 0.12 0.34  
Year to date precipitation 5.60 10.43  
Snow  
Snow 0.00 in - - ()
Month to date snowfall 0.0  
Snow Depth 0.00 in    
Sea Level Pressure  
Sea Level Pressure 29.82 in    
Wind  
Wind Speed 6 mph (SW)    
Max Wind Speed 14 mph    
Max Gust Speed 19 mph    
Visibility 10 miles    
Events      
T = Trace of Precipitation, MM = Missing Value Source: NWS Daily Summary

Daily Weather History Graph

Daily Weather History Graph

Search for Another Location

Airport or City:

Trip Planner

Search our weather history database for the weather conditions in past years. The results will help you decide how hot, cold, wet, or windy it might be!

Date:

Astronomy

Nov. 20, 2013 Rise Set
Actual Time 6:57 AM MST 5:21 PM MST
Civil Twilight 6:31 AM MST 5:47 PM MST
Nautical Twilight 6:01 AM MST 6:17 PM MST
Astronomical Twilight 5:32 AM MST 6:46 PM MST
Moon 8:07 PM MST (11/20) 9:24 AM MST (11/20)
Length of Visible Light 11h 16m
Length of Day
10h 23m
Waning Gibbous, 91% of the Moon is Illuminated
Nov 20
Waning Gibbous
Nov 25
Last Quarter
Dec 2
New
Dec 9
First Quarter
Dec 17
Full

Hourly Weather History & Observations

Time (MST) Temp. Dew Point Humidity Pressure Visibility Wind Dir Wind Speed Gust Speed Precip Events Conditions
12:53 AM 57.0 °F 36.0 °F 45% 29.84 in 10.0 mi SSE 3.5 mph - N/A   Clear
1:53 AM 54.0 °F 36.0 °F 51% 29.83 in 10.0 mi SE 6.9 mph - N/A   Clear
2:53 AM 53.1 °F 30.9 °F 43% 29.84 in 10.0 mi South 3.5 mph - N/A   Clear
3:53 AM 53.1 °F 30.9 °F 43% 29.83 in 10.0 mi South 4.6 mph - N/A   Clear
4:53 AM 52.0 °F 30.0 °F 43% 29.83 in 10.0 mi South 9.2 mph - N/A   Clear
5:53 AM 52.0 °F 30.0 °F 43% 29.85 in 10.0 mi SSE 8.1 mph - N/A   Clear
6:53 AM 53.1 °F 30.0 °F 41% 29.84 in 10.0 mi SE 6.9 mph - N/A   Clear
7:53 AM 53.1 °F 28.9 °F 40% 29.87 in 10.0 mi SSE 8.1 mph - N/A   Clear
8:53 AM 59.0 °F 32.0 °F 36% 29.86 in 10.0 mi South 5.8 mph - N/A   Clear
9:53 AM 64.0 °F 32.0 °F 30% 29.85 in 10.0 mi East 6.9 mph - N/A   Clear
10:53 AM 69.1 °F 34.0 °F 27% 29.83 in 10.0 mi Calm Calm - N/A   Clear
11:53 AM 72.0 °F 35.1 °F 26% 29.81 in 10.0 mi North 4.6 mph - N/A   Clear
12:53 PM 73.9 °F 34.0 °F 23% 29.78 in 10.0 mi West 4.6 mph - N/A   Clear
1:53 PM 73.0 °F 35.1 °F 25% 29.78 in 10.0 mi NNW 10.4 mph - N/A   Clear
2:53 PM 75.9 °F 34.0 °F 22% 29.76 in 10.0 mi NW 9.2 mph - N/A   Clear
3:53 PM 75.0 °F 36.0 °F 24% 29.76 in 10.0 mi West 10.4 mph - N/A   Clear
4:53 PM 72.0 °F 37.0 °F 28% 29.78 in 10.0 mi WNW 8.1 mph - N/A   Clear
5:53 PM 71.1 °F 36.0 °F 28% 29.79 in 10.0 mi NW 5.8 mph - N/A   Overcast
6:53 PM 70.0 °F 37.9 °F 31% 29.81 in 10.0 mi NW 5.8 mph - N/A   Overcast
7:53 PM 68.0 °F 39.0 °F 35% 29.82 in 10.0 mi WNW 4.6 mph - N/A   Mostly Cloudy
8:53 PM 66.0 °F 39.0 °F 37% 29.84 in 10.0 mi West 4.6 mph - N/A   Mostly Cloudy
9:53 PM 66.0 °F 39.9 °F 38% 29.85 in 10.0 mi WNW 6.9 mph - N/A   Overcast
10:53 PM 64.0 °F 39.9 °F 41% 29.84 in 10.0 mi West 5.8 mph - N/A   Overcast
11:53 PM 62.1 °F 39.9 °F 44% 29.84 in 10.0 mi South 3.5 mph - N/A   Mostly Cloudy